Temperature
9 9 9 9 9 9 9 9 9 9 9 9 9 9 9 9 9 9 9 9 9 9 9 9 9 9 9 9 9 9 9 9 9 10 10 10 10 10 9 9 10 9 10
9 9 9 9 9 9 9 9 9 9 9 9 9 9 9 9 9 9 9 9 9 9 9 9 8 8 8 8 8 8 9 9 9 9 9 9 9 9 9 9 9 9 9
8 8 8 8 8 8 8 8 8 8 8 8 8 8 8 8 8 8 8 8 8 8 8 8 8 8 8 8 8 8 8 8 8 8 9 9 9 9 9 9 9 9 9
7 7 7 7 8 8 8 8 7 7 8 8 7 7 7 8 8 8 8 8 8 8 8 8 8 8 8 8 8 8 8 8 8 8 8 8 8 8 9 9 9 8 9
7 7 7 7 7 7 7 7 7 7 7 7 7 7 7 7 7 7 7 7 7 7 7 7 7 7 7 7 7 7 7 7 7 8 8 8 8 8 8 8 8 8 8
6 6 6 6 6 6 6 6 6 6 6 6 7 7 7 6 6 6 6 6 6 6 6 7 7 7 7 7 7 7 7 7 7 7 7 7 7 7 8 8 8 8 8
6 6 6 6 6 6 6 6 6 6 6 6 6 6 6 6 6 6 6 6 6 6 6 6 6 6 6 6 6 6 6 6 6 6 6 7 7 7 7 7 7 7 7
5 5 5 5 5 5 5 5 5 5 5 5 5 4 5 5 5 5 5 5 5 5 5 5 5 5 5 6 6 6 6 6 6 6 6 6 6 6 6 7 7 7 7
4 4 4 4 4 4 4 4 4 4 4 4 4 4 4 4 4 4 5 5 5 5 5 5 5 5 5 5 5 5 5 5 5 5 6 6 6 6 6 6 6 6 6
4 4 4 4 4 4 3 4 4 4 4 3 3 3 3 3 3 3 4 4 4 4 4 4 4 4 4 4 4 5 5 5 5 5 5 5 5 5 5 6 6 6 6
3 3 3 3 3 3 3 3 3 3 3 3 3 3 3 3 2 2 3 3 3 4 4 4 4 4 4 4 4 4 4 4 4 4 4 5 5 5 5 5 5 5 5
2 2 2 2 2 2 2 2 2 2 2 2 2 2 2 2 2 2 2 2 2 3 3 3 3 3 3 3 3 3 3 4 4 4 4 4 4 4 4 4 4 5 5
2 2 2 2 2 2 2 1 1 2 1 1 1 1 1 1 1 1 1 1 1 1 2 2 2 2 3 3 3 3 3 3 3 3 3 3 3 4 4 4 4 4 4
1 1 1 1 1 1 1 1 1 1 1 1 1 1 1 1 1 1 0 0 0 1 1 1 2 2 2 2 2 2 2 2 2 2 3 3 3 3 3 3 3 3 4
0 0 0 0 0 0 0 0 0 0 0 0 0 0 0 -0 -0 -0 -0 -0 -0 -0 0 1 1 1 1 1 2 2 2 2 2 2 2 2 2 2 2 2 3 3 3
-1 -1 -1 -1 -1 -1 -1 -1 -1 -1 -1 -1 -1 -1 -1 -1 -1 -1 -1 -1 -1 -1 -1 -0 0 0 0 1 1 1 1 1 1 1 1 1 1 1 2 2 2 2 2
-2 -2 -2 -2 -2 -1 -1 -2 -2 -2 -1 -1 -1 -1 -1 -1 -1 -1 -1 -1 -1 -1 -2 -1 -1 -1 -1 -0 0 0 0 0 1 1 0 1 1 1 1 1 1 1 1
-3 -3 -3 -3 -2 -2 -2 -2 -2 -2 -2 -2 -2 -2 -2 -2 -2 -2 -2 -2 -2 -2 -2 -2 -2 -1 -1 -1 -1 -1 -1 -0 -0 -0 -0 -0 -0 -0 0 0 0 0 0
-3 -3 -3 -3 -3 -3 -3 -3 -3 -3 -3 -3 -3 -3 -2 -3 -3 -3 -3 -3 -3 -3 -3 -3 -3 -2 -2 -2 -2 -1 -1 -1 -1 -1 -1 -1 -1 -1 -1 -1 -1 -0 -0
-4 -4 -4 -4 -4 -4 -4 -4 -4 -4 -4 -4 -3 -3 -3 -3 -3 -3 -3 -3 -3 -3 -3 -3 -3 -3 -3 -2 -2 -2 -2 -2 -2 -2 -2 -2 -2 -2 -2 -1 -1 -1 -1
-5 -5 -5 -5 -5 -5 -5 -5 -5 -5 -4 -4 -4 -4 -4 -4 -4 -4 -4 -4 -4 -4 -4 -4 -4 -4 -3 -3 -3 -3 -3 -3 -3 -3 -3 -2 -2 -2 -2 -2 -2 -2 -2
-6 -6 -6 -6 -6 -6 -6 -6 -6 -5 -5 -5 -5 -5 -5 -5 -5 -5 -5 -5 -5 -5 -4 -4 -4 -4 -4 -4 -4 -4 -4 -4 -4 -4 -3 -3 -3 -3 -3 -3 -3 -3 -3
-7 -7 -6 -6 -6 -6 -6 -6 -6 -6 -6 -6 -6 -6 -6 -6 -5 -5 -5 -5 -5 -5 -5 -5 -5 -5 -5 -5 -4 -5 -5 -5 -5 -4 -4 -4 -4 -4 -4 -3 -3 -3 -3
-7 -7 -7 -7 -7 -7 -7 -7 -7 -7 -7 -6 -6 -6 -6 -6 -6 -6 -6 -6 -6 -6 -5 -6 -6 -5 -5 -5 -5 -5 -5 -5 -5 -5 -5 -5 -5 -5 -4 -4 -4 -4 -4
-8 -8 -8 -8 -8 -8 -8 -8 -8 -8 -7 -7 -7 -7 -7 -7 -7 -7 -7 -7 -7 -6 -6 -6 -6 -6 -6 -6 -6 -6 -6 -6 -6 -6 -6 -6 -6 -5 -5 -5 -5 -4 -4
-9 -9 -9 -9 -9 -8 -8 -8 -8 -8 -8 -8 -8 -8 -8 -7 -7 -7 -7 -7 -7 -7 -7 -7 -7 -6 -6 -6 -6 -7 -7 -7 -7 -7 -6 -6 -6 -7 -6 -6 -5 -5 -5
Wind_Speed
3 3 3 3 2 2 2 2 2 2 2 3 2 2 2 2 2 2 2 5 5 5 5 5 5 4 4 4 4 4 4 4 2 1 1 1 1 1 0 2 3 3 3
3 2 2 2 2 2 1 1 1 1 1 1 1 1 1 2 2 2 2 3 4 5 5 5 5 5 3 2 2 2 2 3 3 2 2 1 1 0 1 2 2 2 3
2 2 2 2 2 1 1 1 1 1 1 1 0 0 1 1 1 1 1 2 2 3 4 5 5 5 5 3 1 1 1 2 2 2 3 2 2 2 2 2 3 3 2
2 2 1 2 1 1 1 1 0 1 1 1 1 1 0 0 0 0 1 2 2 1 2 4 5 5 5 5 3 2 1 1 2 2 2 3 3 3 2 2 3 4 4
2 1 1 1 0 1 1 1 1 1 1 2 2 2 1 1 1 1 1 1 1 2 2 2 3 4 5 5 4 4 3 2 3 3 3 4 4 4 4 4 3 3 4
2 1 1 1 0 0 0 0 1 1 1 2 2 2 2 2 1 1 2 2 1 1 2 2 2 3 3 4 4 4 4 3 4 4 4 5 5 5 5 5 4 3 3
4 2 1 1 0 1 1 1 1 1 1 1 2 2 2 3 2 2 2 2 2 2 2 2 3 3 3 3 4 4 4 4 5 5 5 5 5 5 4 4 4 3 4
3 3 2 1 1 1 1 1 1 1 1 1 2 2 2 3 2 3 2 3 2 3 3 3 3 4 4 4 4 4 5 5 6 6 7 7 7 6 6 5 5 5 4
3 2 2 1 1 1 1 2 2 2 2 1 2 2 2 3 2 3 3 3 3 3 3 4 4 4 5 4 4 4 5 6 7 8 8 7 7 7 7 6 6 6 6
4 4 3 2 1 1 2 2 2 2 3 2 2 2 3 2 3 3 3 4 4 4 4 4 4 5 5 5 5 5 6 7 8 8 8 7 8 7 7 7 7 7 7
3 3 3 3 2 2 2 2 2 2 2 3 2 2 3 3 4 4 4 4 4 4 4 4 4 5 5 5 5 6 6 7 8 8 8 7 7 7 7 7 8 8 8
1 2 3 2 2 2 2 2 3 3 3 3 3 3 3 3 3 4 5 6 5 4 4 4 4 5 5 5 6 7 7 8 8 9 8 8 7 7 8 8 7 9 9
1 2 2 2 3 3 3 3 3 3 3 4 4 4 4 4 4 4 6 5 6 5 4 4 4 5 5 5 6 7 8 8 9 9 9 8 8 8 8 9 9 9 10
2 2 2 2 3 3 3 3 3 3 3 4 5 5 4 5 4 4 5 5 5 5 5 5 3 4 5 5 6 7 7 9 10 10 9 9 9 8 8 8 9 9 9
1 2 2 2 3 3 3 3 3 3 3 4 4 5 5 5 4 5 5 5 5 6 7 5 3 4 5 6 6 7 7 8 9 10 10 10 9 9 9 8 8 9 9
1 2 2 2 3 3 3 3 3 3 3 4 3 4 4 4 5 5 5 5 6 7 7 5 5 5 6 6 8 8 8 9 9 9 9 9 10 9 9 9 9 9 9
1 2 2 3 3 3 3 3 4 4 4 4 4 4 5 5 5 4 5 5 5 6 8 7 5 5 6 6 7 7 8 7 7 9 9 9 9 9 9 9 9 9 9
2 2 2 3 3 4 4 4 5 4 5 5 5 5 6 5 6 5 5 5 5 6 7 8 6 5 6 6 7 7 7 7 8 9 10 10 10 10 9 9 9 9 10
2 2 2 3 4 4 4 5 5 5 5 6 6 6 7 6 7 6 6 6 5 5 6 7 7 5 6 5 6 6 7 7 7 9 10 11 11 11 10 10 10 10 10
3 3 3 4 4 5 5 5 6 6 6 6 6 7 7 7 7 7 6 6 5 5 6 6 6 5 5 5 5 6 6 6 6 7 8 9 10 11 11 11 11 11 11
3 3 4 4 4 5 4 5 6 6 7 6 6 7 7 7 8 7 6 6 5 5 5 6 6 6 5 5 5 5 7 6 6 5 6 6 7 7 8 11 11 11 11
3 4 4 5 5 5 6 8 7 7 7 7 7 7 7 7 8 8 8 8 7 7 7 6 7 7 8 7 6 6 6 6 6 4 6 7 6 7 7 8 9 11 12
4 4 5 5 6 6 8 9 9 7 7 7 7 7 6 6 8 6 7 8 8 9 9 8 9 9 9 8 7 8 7 7 7 5 6 7 6 7 7 8 10 11 11
4 5 5 6 6 7 8 9 9 7 7 7 7 7 7 7 7 6 6 7 7 8 8 7 8 9 9 8 8 8 8 8 8 5 5 6 6 7 7 8 9 10 11
5 5 6 6 7 7 8 9 9 6 6 6 6 7 7 8 9 8 7 7 8 7 8 10 11 11 12 11 10 7 7 6 7 6 5 5 6 6 7 6 7 8 9
5 6 6 6 7 8 9 9 9 5 6 6 6 6 8 9 10 9 7 7 8 8 7 8 9 10 10 10 10 8 7 7 6 6 5 5 5 4 4 5 5 6 7
Wind_Direction
74 72 75 71 66 62 79 87 93 97 93 88 87 86 78 67 63 52 55 39 35 41 46 53 51 61 70 69 61 55 48 48 55 65 65 69 75 47 212 193 187 181 164
78 74 67 64 58 45 46 78 107 120 109 103 91 80 76 67 56 50 38 43 39 39 37 37 36 34 30 44 61 55 48 41 41 44 38 28 9 289 356 238 212 199 197
78 78 68 58 49 33 33 69 120 139 124 127 126 67 52 53 61 50 23 2 13 47 40 31 27 25 19 11 25 47 52 40 24 9 7 355 351 338 283 280 232 214 199
70 82 68 48 30 32 48 40 283 219 211 227 240 247 248 247 253 333 353 344 345 357 28 25 16 15 9 359 356 350 316 333 325 329 318 322 306 291 287 301 265 232 220
53 72 68 52 45 65 45 5 319 275 248 251 255 255 249 235 240 241 261 310 351 352 351 9 12 6 1 354 336 332 323 325 309 295 299 302 298 285 278 270 291 260 238
31 41 66 43 133 97 59 325 288 301 271 269 264 259 252 244 238 235 257 274 295 321 328 332 328 325 344 346 333 324 317 311 308 306 295 294 284 283 278 269 265 270 249
20 18 31 28 344 228 230 245 250 254 286 285 266 264 243 233 238 240 251 257 262 283 291 303 306 300 305 313 320 320 305 296 294 291 287 285 286 278 277 273 263 279 260
19 8 12 360 315 277 249 232 227 238 273 268 257 266 254 227 230 238 244 244 252 262 272 281 289 293 293 291 295 296 299 296 292 289 286 279 272 268 264 266 271 264 273
10 4 360 343 325 282 264 268 247 234 240 243 251 248 252 247 271 232 241 240 244 253 266 270 273 278 282 287 289 282 289 294 293 289 287 281 269 264 265 265 272 273 271
15 5 1 344 319 296 270 264 261 258 247 242 250 257 270 277 260 257 240 244 250 252 260 270 268 269 271 274 280 291 290 292 288 288 287 284 272 264 262 263 265 275 274
9 2 358 355 340 310 292 281 263 250 249 253 250 260 257 261 256 256 264 264 259 254 260 262 266 266 264 265 273 283 288 284 285 286 285 286 281 275 272 271 267 272 274
355 356 350 341 334 324 307 291 270 253 247 246 246 245 253 252 253 254 261 268 267 265 260 259 260 263 260 263 271 284 284 282 281 281 279 282 286 288 285 282 279 272 273
303 315 333 323 318 312 303 292 279 264 252 246 242 242 248 252 259 263 263 266 270 274 265 252 255 264 266 269 276 283 279 280 280 280 278 278 282 285 286 283 279 277 271
263 292 297 298 299 298 299 289 280 278 264 252 249 245 249 255 252 252 257 260 265 263 260 258 259 267 273 275 287 284 277 277 276 277 275 274 276 279 281 282 280 279 274
276 284 287 291 292 293 289 286 274 274 275 261 258 253 252 259 255 252 253 251 252 258 261 259 263 267 272 272 278 277 276 280 277 276 275 274 272 269 270 274 279 279 276
287 283 285 287 292 293 289 279 273 270 265 269 268 259 260 267 259 252 250 251 250 254 261 266 265 278 276 278 276 276 275 276 273 277 278 275 272 270 269 272 275 275 275
276 280 283 286 287 287 284 270 268 268 264 267 268 268 265 270 265 257 254 251 253 252 260 271 273 274 268 272 278 277 277 274 273 272 274 276 275 274 270 268 268 269 271
275 277 280 283 286 285 282 273 269 267 263 264 266 266 267 275 268 259 256 256 255 253 257 267 274 275 270 272 276 277 281 277 276 274 273 273 274 273 270 270 267 267 270
277 280 282 282 284 282 279 277 273 270 266 263 264 266 267 273 272 262 258 256 259 262 263 266 272 275 275 274 274 276 279 280 279 274 271 269 271 271 268 269 270 269 268
271 276 282 282 282 279 277 278 276 272 269 267 268 268 266 265 269 265 260 257 261 261 263 264 271 275 275 277 269 267 272 272 274 276 275 274 272 265 265 268 268 268 268
272 274 275 278 281 276 274 280 279 272 270 270 272 271 268 271 275 268 265 264 260 258 259 262 265 274 271 273 267 267 268 275 270 269 276 274 271 265 264 264 262 262 265
276 273 270 272 276 276 282 284 283 275 269 270 274 277 274 272 271 266 265 265 263 257 256 257 262 263 268 270 269 267 272 274 268 263 267 269 266 263 264 262 263 261 263
276 273 273 272 273 277 282 283 280 279 272 270 271 274 275 278 275 269 268 268 265 262 257 256 259 261 267 265 269 268 263 265 266 271 268 265 265 266 270 270 265 258 263
275 274 276 277 279 280 285 285 284 276 271 269 268 268 270 276 271 272 272 267 267 265 263 261 261 264 269 272 266 265 268 269 270 264 254 261 266 269 274 272 261 256 260
281 276 277 277 278 282 284 286 288 277 271 273 272 269 269 273 272 272 270 267 270 271 269 266 270 273 272 268 265 266 261 258 265 263 247 254 265 274 272 266 265 260 259
278 281 280 278 278 281 284 285 285 273 273 275 275 271 267 272 275 272 267 265 267 273 277 276 270 269 266 260 253 249 251 253 261 259 237 243 259 270 267 258 266 271 265
Height
1545 1545 1546 1546 1547 1547 1548 1548 1548 1548 1548 1549 1549 1549 1549 1549 1549 1549 1548 1549 1549 1549 1549 1548 1548 1548 1548 1548 1548 1548 1548 1548 1548 1548 1548 1549 1549 1549 1549 1550 1550 1550 1550
1543 1544 1544 1545 1545 1546 1546 1547 1547 1547 1547 1548 1548 1547 1547 1547 1547 1547 1547 1547 1547 1547 1547 1547 1547 1547 1547 1547 1546 1546 1546 1546 1546 1546 1547 1547 1547 1547 1548 1548 1548 1548 1549
1542 1542 1543 1543 1544 1544 1545 1545 1545 1546 1546 1546 1546 1546 1546 1546 1546 1546 1546 1545 1545 1545 1545 1545 1545 1545 1545 1545 1545 1545 1544 1544 1544 1544 1544 1545 1545 1545 1546 1546 1546 1547 1547
1540 1540 1541 1541 1542 1542 1543 1543 1543 1544 1544 1544 1544 1544 1544 1543 1544 1544 1544 1543 1543 1543 1542 1543 1543 1542 1543 1543 1543 1542 1542 1542 1542 1542 1542 1542 1543 1543 1543 1544 1544 1544 1545
1538 1538 1539 1539 1539 1540 1540 1541 1541 1541 1541 1542 1542 1542 1541 1541 1541 1541 1541 1541 1541 1540 1540 1540 1540 1540 1540 1540 1540 1540 1540 1540 1540 1540 1540 1540 1540 1540 1541 1541 1541 1542 1542
1535 1536 1536 1536 1537 1537 1537 1538 1538 1539 1539 1539 1539 1539 1539 1539 1539 1538 1538 1538 1538 1538 1538 1537 1537 1537 1537 1537 1537 1537 1537 1537 1537 1537 1537 1537 1537 1538 1538 1538 1538 1539 1539
1533 1533 1533 1534 1534 1534 1534 1535 1535 1536 1536 1536 1536 1536 1536 1536 1535 1535 1535 1535 1535 1535 1535 1534 1535 1534 1534 1534 1534 1534 1534 1534 1534 1534 1534 1534 1534 1534 1535 1535 1535 1536 1536
1530 1530 1531 1531 1531 1531 1531 1532 1532 1532 1533 1533 1534 1534 1534 1534 1532 1532 1532 1532 1532 1532 1532 1531 1531 1531 1531 1531 1531 1531 1531 1531 1531 1531 1530 1530 1530 1531 1531 1531 1532 1532 1533
1527 1527 1528 1528 1528 1528 1529 1529 1529 1529 1530 1530 1531 1532 1532 1531 1530 1529 1528 1528 1528 1528 1529 1528 1528 1528 1528 1527 1527 1527 1527 1527 1527 1527 1526 1526 1526 1527 1527 1527 1528 1528 1528
1524 1524 1525 1525 1525 1525 1525 1526 1526 1526 1526 1526 1527 1528 1529 1528 1528 1526 1525 1525 1524 1524 1525 1524 1524 1524 1524 1524 1523 1523 1523 1523 1523 1522 1522 1522 1522 1522 1523 1523 1523 1523 1524
1521 1521 1521 1522 1521 1521 1522 1522 1522 1522 1523 1523 1523 1523 1524 1524 1524 1523 1521 1521 1520 1520 1520 1520 1520 1520 1520 1519 1519 1519 1519 1519 1519 1518 1518 1518 1517 1518 1518 1518 1518 1519 1519
1517 1518 1517 1518 1518 1517 1518 1518 1518 1518 1518 1519 1519 1519 1520 1520 1520 1519 1518 1517 1516 1516 1516 1516 1516 1516 1515 1515 1515 1514 1515 1515 1514 1514 1514 1513 1513 1513 1513 1513 1513 1514 1514
1513 1513 1513 1514 1513 1514 1514 1514 1514 1514 1514 1514 1515 1515 1515 1515 1515 1515 1515 1513 1512 1511 1511 1511 1511 1511 1510 1510 1510 1510 1510 1510 1509 1509 1509 1509 1508 1508 1508 1508 1508 1509 1509
1509 1509 1510 1509 1509 1509 1510 1510 1509 1509 1509 1510 1510 1510 1510 1510 1510 1510 1510 1510 1508 1507 1507 1506 1506 1506 1505 1505 1505 1504 1504 1504 1504 1504 1504 1504 1503 1503 1503 1503 1503 1503 1503
1505 1505 1505 1505 1505 1505 1505 1505 1504 1504 1505 1505 1505 1504 1504 1504 1504 1504 1505 1505 1505 1503 1502 1501 1501 1501 1500 1500 1499 1499 1499 1498 1499 1498 1499 1498 1498 1498 1498 1497 1497 1497 1497
1501 1501 1501 1501 1501 1500 1500 1500 1499 1499 1500 1499 1499 1499 1499 1499 1499 1499 1499 1499 1499 1499 1497 1496 1496 1496 1495 1495 1494 1494 1493 1493 1493 1493 1493 1493 1492 1492 1492 1491 1491 1492 1492
1497 1497 1497 1496 1496 1495 1495 1495 1494 1494 1494 1494 1494 1494 1494 1494 1493 1493 1493 1493 1493 1494 1492 1491 1491 1491 1490 1489 1489 1488 1487 1487 1486 1487 1487 1487 1487 1486 1486 1486 1486 1486 1486
1492 1492 1492 1492 1491 1491 1490 1490 1489 1489 1489 1489 1489 1489 1488 1488 1488 1487 1487 1487 1488 1488 1488 1485 1485 1485 1485 1484 1484 1483 1482 1481 1481 1481 1481 1481 1481 1480 1480 1480 1480 1480 1480
1488 1488 1488 1487 1487 1486 1486 1485 1485 1484 1484 1484 1484 1483 1483 1483 1482 1482 1482 1482 1482 1482 1482 1481 1479 1480 1479 1479 1478 1478 1477 1476 1475 1475 1475 1475 1474 1474 1474 1474 1474 1474 1474
1484 1483 1483 1483 1482 1481 1481 1480 1480 1479 1479 1479 1478 1478 1477 1477 1477 1476 1476 1476 1476 1476 1476 1476 1474 1474 1474 1473 1473 1472 1470 1470 1469 1469 1468 1468 1468 1468 1468 1468 1468 1467 1467
1480 1479 1479 1478 1477 1477 1476 1475 1475 1474 1474 1473 1473 1472 1472 1471 1471 1471 1471 1471 1471 1470 1470 1469 1469 1468 1468 1468 1467 1466 1465 1464 1463 1463 1462 1462 1462 1461 1461 1461 1461 1461 1461
1475 1475 1474 1473 1473 1472 1471 1471 1470 1469 1469 1468 1467 1467 1466 1466 1465 1465 1465 1465 1465 1465 1464 1464 1463 1462 1462 1462 1462 1461 1460 1459 1457 1457 1457 1456 1456 1455 1455 1455 1455 1455 1455
1471 1470 1469 1469 1468 1467 1467 1466 1465 1464 1463 1462 1462 1461 1461 1460 1460 1459 1459 1459 1459 1459 1459 1459 1457 1456 1456 1456 1456 1455 1454 1453 1452 1451 1451 1449 1450 1449 1449 1449 1449 1448 1448
1466 1466 1465 1464 1463 1462 1462 1461 1460 1459 1458 1457 1456 1456 1455 1455 1454 1453 1453 1453 1452 1453 1453 1452 1451 1450 1450 1450 1450 1450 1449 1448 1447 1446 1446 1444 1443 1443 1443 1442 1442 1442 1442
1462 1461 1460 1459 1458 1457 1456 1456 1455 1454 1453 1452 1451 1450 1450 1449 1449 1448 1448 1447 1446 1446 1446 1446 1445 1444 1443 1444 1444 1444 1443 1442 1440 1440 1440 1439 1438 1437 1436 1435 1435 1435 1435
1458 1457 1456 1455 1453 1452 1451 1451 1450 1449 1448 1447 1446 1445 1445 1444 1444 1443 1442 1441 1439 1439 1439 1438 1438 1437 1437 1436 1437 1437 1436 1436 1434 1434 1433 1434 1433 1432 1430 1428 1429 1429 1429